Rio de Janeiro, Brazil

9:29 PM -03 on March 30, 2017 (GMT -0300)
Santos Dumont

Weather History for SBRJ - July, 2013

Change the Weather History Date:

Saturday, July 20, 2013

  Actual Average Record
Temperature  
Mean Temperature 78 °F -  
Max Temperature 86 °F 75 °F 87 °F (2001)
Min Temperature 71 °F 65 °F 59 °F (2004)
Cooling Degree Days 14    
Growing Degree Days 28 (Base 50)    
Moisture  
Dew Point 76 °F    
Average Humidity 95    
Maximum Humidity 100    
Minimum Humidity 79    
Precipitation  
Precipitation 0.00 in - - ()
Sea Level Pressure  
Sea Level Pressure 29.84 in    
Wind  
Wind Speed 4 mph ()    
Max Wind Speed 9 mph    
Max Gust Speed -    
Visibility 3.3 miles    
Events      
Averages and records for this station are not official NWS values.
T = Trace of Precipitation, MM = Missing Value Source: Averaged Metar Reports

Daily Weather History Graph

Daily Weather History Graph

Search for Another Location

Airport or City:

Trip Planner

Search our weather history database for the weather conditions in past years. The results will help you decide how hot, cold, wet, or windy it might be!

Date:

Astronomy

Jul. 20, 2013 Rise Set
Actual Time 6:31 AM -03 5:26 PM -03
Civil Twilight 6:07 AM -03 5:50 PM -03
Nautical Twilight 5:40 AM -03 6:18 PM -03
Astronomical Twilight 5:13 AM -03 6:45 PM -03
Moon 3:23 PM -03 (7/20) 4:04 AM -03 (7/20)
Length of Visible Light 11h 42m
Length of Day
10h 54m
Waxing Gibbous, 93% of the Moon is Illuminated
Jul 20
Waxing Gibbous
Jul 22
Full
Jul 29
Last Quarter
Aug 6
New
Aug 14
First Quarter

Hourly Weather History & Observations

Time (-03) Temp. Heat Index Dew Point Humidity Pressure Visibility Wind Dir Wind Speed Gust Speed Precip Events Conditions
5:15 AM 71.6 °F - 71.6 °F 100% 29.92 in 2.5 mi Calm Calm - N/A   Mostly Cloudy
6:00 AM 71.6 °F - 71.6 °F 100% 29.92 in 2.5 mi ENE 4.6 mph - N/A   Mostly Cloudy
7:00 AM 71.6 °F - 71.6 °F 100% 29.92 in 2.5 mi North 3.5 mph - N/A   Mostly Cloudy
8:00 AM 73.4 °F - 73.4 °F 100% 29.92 in 2.5 mi NE 4.6 mph - N/A   Mostly Cloudy
9:00 AM 75.2 °F - 75.2 °F 100% 29.95 in 2.5 mi NNW 4.6 mph - N/A   Mostly Cloudy
10:00 AM 77.0 °F - 77.0 °F 100% 29.92 in 2.5 mi NW 3.5 mph - N/A   Mostly Cloudy
11:00 AM 80.6 °F 88.1 °F 78.8 °F 94% 29.89 in 3.1 mi North 4.6 mph - N/A   Partly Cloudy
12:00 PM 82.4 °F 90.9 °F 77.0 °F 84% 29.86 in 3.7 mi North 3.5 mph - N/A   Partly Cloudy
1:00 PM 84.2 °F 94.1 °F 77.0 °F 79% 29.83 in 4.3 mi NNE 2.3 mph - N/A   Unknown
2:00 PM 86.0 °F 99.3 °F 78.8 °F 79% 29.80 in 5.0 mi East 4.6 mph - N/A   Unknown
3:00 PM 82.4 °F 92.4 °F 78.8 °F 89% 29.77 in 5.6 mi South 8.1 mph - N/A   Unknown
4:00 PM 80.6 °F 88.1 °F 78.8 °F 94% 29.77 in - South 9.2 mph - N/A   Clear
5:00 PM 78.8 °F - 78.8 °F 100% 29.77 in - South 9.2 mph - N/A   Clear
6:00 PM 75.2 °F - 75.2 °F 100% 29.77 in - South 8.1 mph - N/A   Clear
7:00 PM 75.2 °F - 75.2 °F 100% 29.77 in - South 5.8 mph - N/A   Clear
8:00 PM 75.2 °F - 75.2 °F 100% 29.80 in - NNW 2.3 mph - N/A   Clear
9:00 PM 77.0 °F - 77.0 °F 100% 29.77 in - NW 5.8 mph - N/A   Clear
10:00 PM 78.8 °F - 77.0 °F 94% 29.77 in - NW 6.9 mph - N/A   Clear
11:00 PM 77.0 °F - 75.2 °F 94% 29.80 in - North 4.6 mph - N/A   Clear